• Processing (Info)

  • MPEC 2023-V236 : 2023 VJ8

    The following Minor Planet Electronic Circular may be linked-to from your own Web pages, but must not otherwise be redistributed electronically.

    A form allowing access to any MPEC is at the bottom of this page.


    Read MPEC 2023-V235 Read MPEC 2023-V237


    M.P.E.C. 2023-V236                            Issued 2023 November 13, 22:16 UT
    
         The Minor Planet Electronic Circulars contain information on unusual
             minor planets, routine data on comets and natural satellites,
             and occasional editorial announcements.  They are published
        on behalf of Division F of the International Astronomical Union by the
              Minor Planet Center, Smithsonian Astrophysical Observatory,
                              Cambridge, MA 02138, U.S.A.
    			  
                 Prepared using the Tamkin Foundation Computer Network
    
                                  MPC@CFA.HARVARD.EDU
                URL https://www.minorplanetcenter.net/    ISSN 1523-6714
    
                                    2023 VJ8                                 
    
    
    Observations:
         K23V08J* C2023 11 12.33106602 51 30.190+10 22 52.68         21.89GVEV236V00
         K23V08J  C2023 11 12.33659102 51 29.682+10 21 43.20         21.35GVEV236V00
         K23V08J  C2023 11 12.34209202 51 29.214+10 20 32.96         22.02GVEV236V00
         K23V08J  C2023 11 12.34760102 51 28.688+10 19 22.15         21.93GVEV236V00
         K23V08J KC2023 11 13.23143502 50 27.539+07 10 48.61         21.18GVEV236I52
         K23V08J KC2023 11 13.29353702 50 21.890+06 57 34.81         21.12GVEV236I52
         K23V08J KC2023 11 13.30220302 50 21.109+06 55 44.44         21.61GVEV236I52
         K23V08J 1C2023 11 13.90500 02 49 39.77 +04 47 13.0          21.3 VXEV236033
         K23V08J 1C2023 11 13.90627 02 49 39.62 +04 46 57.2          21.4 VXEV236033
         K23V08J 1C2023 11 13.90754 02 49 39.54 +04 46 41.4          21.2 VXEV236033
         K23V08J 1C2023 11 13.90881 02 49 39.41 +04 46 24.6          21.5 VXEV236033
         K23V08J 1C2023 11 13.91008 02 49 39.32 +04 46 09.1          21.6 VXEV236033
         K23V08J 1C2023 11 13.91146 02 49 39.22 +04 45 51.0          21.3 VXEV236033
         K23V08J 1C2023 11 13.91281 02 49 39.06 +04 45 33.9          21.4 VXEV236033
    
    Observer details:
    033 Karl Schwarzschild Observatory, Tautenburg.  Observers S. Melnikov, C.
        Hogner, F. Ludwig, M. Hartmann, B. Stecklum.  Measurer B. Stecklum.
        1.34-m f/3 Schmidt + CCD.
    I52 Steward Observatory, Mt. Lemmon Station.  Observer J. K. Hogan.  Measurers
        E. C. Beshore, D. Fay, J. B. Fazekas, D. C. Fuls, A. R. Gibbs, A. D.
        Grauer, H. Groeller, J. K. Hogan, R. A. Kowalski, S. M. Larson, G. J.
        Leonard, D. Rankin, R. L. Seaman, F. C. Shelly, K. W. Wierzchos.  1.0-m
        prime focus + CCD.
    V00 Kitt Peak-Bok.  Observer R. A. Mastaler.  Measurers M. J. Brucker, C. E.
        Woodward, D. Fay, J. B. Fazekas, D. C. Fuls, A. R. Gibbs, H. Groeller, J.
        K. Hogan, R. A. Kowalski, S. M. Larson, C. Lejoly, G. J. Leonard, R. A.
        Mastaler, R. S. McMillan, D. Rankin, R. L. Seaman, A. Serrano, F. C.
        Shelly, K. W. Wierzchos.  2.25-m reflector + 4x4K mosaic CCD.
    
    Orbital elements:
    2023 VJ8                                                 Earth MOID = 0.1539 AU
    Epoch 2023 Sept. 13.0 TT = JDT 2460200.5                MPC                     
    M 265.13105              (2000.0)            P               Q                  
    n   0.71610848     Peri.  247.46436     -0.31071451     -0.86274342             
    a   1.2373242      Node   227.32947     +0.94036029     -0.34016474             
    e   0.1434090      Incl.   32.85687     -0.13848835     -0.37411460             
    P   1.38           H   24.75          G   0.15           U   9                  
    Residuals in seconds of arc
    231112 V00 (0.3-  1.3-)   231113 I52  0.0   0.2-    231113 033  1.0-  0.3-
    231112 V00  0.3-  0.1-    231113 I52  0.1+  0.4+    231113 033  0.8-  0.3+
    231112 V00  0.3+  0.2+    231113 033  0.4-  0.5-    231113 033  0.5-  0.2-
    231112 V00  0.0   0.1-    231113 033  1.1-  0.1-    231113 033  1.2-  0.1-
    231113 I52  0.3+  0.6-    231113 033  0.6-  0.3+
    
    Ephemeris:
    2023 VJ8                 a,e,i = 1.24, 0.14, 33                  q = 1.0599
    Date    TT    R. A. (2000) Decl.     Delta      r    Elong.  Phase     V
    2023 10 14    03 18 33.0 +63 56 39   0.3486  1.2089   119.7    45.8    24.6
    ...
    2023 10 29    03 09 28.7 +49 20 35   0.2213  1.1756   141.9    31.5    23.2
    ...
    2023 11 06    02 59 34.7 +31 17 14   0.1726  1.1583   163.9    13.7    22.0
    ...
    2023 11 12    02 51 55.3 +11 33 53   0.1567  1.1458   173.2     5.9    21.5
    2023 11 13    02 50 43.0 +08 00 45   0.1563  1.1437   169.2     9.4    21.6
    2023 11 14    02 49 32.8 +04 27 55   0.1566  1.1417   165.2    12.8    21.8
    ...
    2023 11 20    02 43 24.5 -15 04 29   0.1717  1.1298   142.8    31.9    22.5
    ...
    2023 11 28    02 38 07.9 -32 58 06   0.2168  1.1149   121.3    49.1    23.5
    ...
    2023 12 13    02 37 13.3 -48 15 47   0.3278  1.0908   100.1    62.7    24.7
    
    A. U. Tomatic                (C) Copyright 2023 MPC           M.P.E.C. 2023-V236
    


    Read MPEC 2023-V235 Read MPEC 2023-V237


    MPEC number:

    Enter an MPEC number in one of the following forms:

    • 1997-B01 (the full form)
    • J97B01 (the packed version of the full form)
    • B01 (the abbreviated form)